Regional Weather Roundup
Issued by NWS Cleveland, OH

Home | Current Version | Previous Version | Text Only | Print | Product List | Glossary On
Versions: 1 2 3 4 5 6 7 8 9 10 11 12 13 14 15 16 17 18 19 20 21 22 23 24 25 26 27 28 29 30 31 32 33 34 35 36 37 38 39 40 41 42 43 44 45 46 47 48 49 50
000
ASUS41 KCLE 120312
RWRCLE
OHIO REGIONAL WEATHER ROUNDUP
NATIONAL WEATHER SERVICE WILMINGTON, OH
1000 PM EST MON DEC 11 2017

NOTE: "FAIR" INDICATES FEW OR NO CLOUDS BELOW 12,000 FEET WITH NO
SIGNIFICANT WEATHER AND/OR OBSTRUCTIONS TO VISIBILITY.

OHZ001>008-015>018-024>027-034-035-043-044-120400-
   NORTHWEST OHIO

CITY           SKY/WX    TMP DP  RH WIND       PRES   REMARKS
DEFIANCE       FAIR      30  25  81 N8        29.67F WCI  22
FINDLAY        CLOUDY    35  25  66 CALM      29.63F
TOLEDO EXPRESS CLOUDY    32  27  81 N5        29.67F WCI  27
TOLEDO EXEC    CLOUDY    32  25  75 N6        29.68F WCI  26
LIMA           CLOUDY    36  28  73 S10       29.62F
$$

OHZ009>014-019>023-028>033-038-089-120400-
   NORTHEAST OHIO

CITY           SKY/WX    TMP DP  RH WIND       PRES   REMARKS
CLE-HOPKINS    CLOUDY    34  25  69 S6        29.70F WCI  29
CLE-LAKEFRONT  FLURRIES  34  23  64 SE15      29.67F WCI  24
CUY CO. ARPT   CLOUDY    34  25  69 S16       29.69F WCI  23
LORAIN-ELYRIA  CLOUDY    32  20  61 S6        29.67F WCI  26
ASHTABULA      MOCLDY    30  26  85 S6        29.71F WCI  24
AKRON-CANTON   CLOUDY    33  22  63 SE7       29.67F WCI  27
WOOSTER        CLOUDY    31  24  75 SE6       29.67F WCI  25
MANSFIELD      CLOUDY    33  24  69 SE10      29.64F WCI  25
YOUNGSTOWN     MOCLDY    31  22  69 S6        29.69F WCI  25
$$

OHZ042-051>053-060>062-070>072-077>081-120400-
  SOUTHWEST OHIO

CITY           SKY/WX    TMP DP  RH WIND       PRES   REMARKS
CINC-COVINGTON FAIR      45  28  51 W16G24    29.70R
CINC-LUNKEN    FAIR      45  30  55 W15       29.71R
HAMILTON       FAIR      43  29  57 W9        29.70R
DAYTON         CLOUDY    37  30  75 SW12      29.65F
WRIGHT-PAT AFB CLOUDY    35  28  75 SW5       29.65S
DAYTON GENERAL FAIR      42  28  57 SW14      29.67R
WILMINGTON     MOCLDY    39  31  72 SW14      29.66S
$$

OHZ036-037-039>041-045>050-054>059-063>069-073>076-082>088-120400-
  CENTRAL AND SOUTHEAST OHIO

CITY           SKY/WX    TMP DP  RH WIND       PRES   REMARKS
COLUMBUS       MOCLDY    37  26  64 SE7       29.65F
OSU AIRPORT    FAIR      36  27  69 S8        29.64F
BOLTON FIELD   FAIR      33  27  77 SE3       29.66F
RICKENBACK AFB FAIR      34  26  73 SE7       29.65F WCI  27
NEWARK         FAIR      28  25  88 CALM      29.66F
MARION         NOT AVBL
LANCASTER      FAIR      33  25  72 SE7       29.66F WCI  27
ZANESVILLE     FAIR      34  24  67 SE5       29.68F WCI  30
NEW PHILLY     FAIR      31  23  72 SE5       29.69F WCI  26
$$




USA.gov is the U.S. government's official web portal to all federal, state and local government web resources and services.